| time (UTC) | temp C | wind direction | speed KPH | gust KPH | rain 1hr cm | rain 24hr cm | rain mn cm | humidity % | barometer mb |
| 20260903124443 | 12 | 213 | 1.6 | 3.2 | 0.15 | 1.80 | 0.15 | 100 | 1008.9 |
| 20260903123944 | 12 | 214 | 0.0 | 1.6 | 0.13 | 1.78 | 0.13 | 100 | 1009.0 |
| 20260903123443 | 12 | 214 | 0.0 | 0.0 | 0.10 | 1.75 | 0.10 | 100 | 1009.0 |
| 20260903122944 | 12 | 214 | 0.0 | 1.6 | 0.08 | 1.73 | 0.08 | 100 | 1009.0 |
| 20260903122443 | 12 | 214 | 0.0 | 1.6 | 0.08 | 1.73 | 0.08 | 100 | 1009.0 |
| 20260903121943 | 12 | 214 | 0.0 | 3.2 | 0.05 | 1.70 | 0.05 | 100 | 1009.0 |
| 20260903121443 | 12 | 214 | 1.6 | 4.8 | 0.03 | 1.68 | 0.03 | 100 | 1009.0 |
| 20260903120943 | 12 | 212 | 3.2 | 8.0 | 0.00 | 1.65 | 0.00 | 100 | 1009.0 |
| 20260903120513 | 12 | 219 | 1.6 | 11.3 | 0.00 | 1.65 | 0.00 | 100 | 1009.0 |
| 20260903120013 | 12 | 209 | 6.4 | 11.3 | 0.00 | 1.65 | 0.00 | 100 | 1009.0 |
| 20260903115513 | 12 | 234 | 4.8 | 9.7 | 0.00 | 1.65 | 0.00 | 100 | 1008.9 |
| 20260903114443 | 12 | 201 | 4.8 | 11.3 | 0.00 | 1.65 | 0.00 | 100 | 1008.9 |
| 20260903113942 | 12 | 278 | 3.2 | 11.3 | 0.00 | 1.65 | 0.00 | 100 | 1008.9 |
| 20260903113442 | 12 | 201 | 4.8 | 9.7 | 0.00 | 1.65 | 0.00 | 100 | 1008.9 |
| 20260903112942 | 12 | 212 | 3.2 | 9.7 | 0.00 | 1.65 | 0.00 | 100 | 1008.9 |
| 20260903112443 | 12 | 194 | 3.2 | 9.7 | 0.00 | 1.65 | 0.00 | 100 | 1008.9 |
| 20260903111512 | 12 | 195 | 4.8 | 9.7 | 0.00 | 1.65 | 0.00 | 100 | 1008.8 |
| 20260903110942 | 12 | 216 | 4.8 | 8.0 | 0.00 | 1.65 | 0.00 | 100 | 1008.8 |
| 20260903110442 | 12 | 225 | 6.4 | 9.7 | 0.00 | 1.65 | 0.00 | 100 | 1008.8 |
| 20260903105942 | 12 | 208 | 1.6 | 11.3 | 0.00 | 1.65 | 0.00 | 100 | 1008.8 |
| 20260903104942 | 12 | 201 | 3.2 | 11.3 | 0.00 | 1.65 | 0.00 | 100 | 1008.9 |
| 20260903103441 | 12 | 217 | 4.8 | 11.3 | 0.00 | 1.65 | 0.00 | 100 | 1009.0 |
| 20260903102941 | 12 | 202 | 4.8 | 9.7 | 0.00 | 1.65 | 0.00 | 100 | 1009.0 |
| 20260903102442 | 12 | 212 | 3.2 | 6.4 | 0.00 | 1.65 | 0.00 | 100 | 1008.9 |
| 20260903101941 | 12 | 223 | 0.0 | 4.8 | 0.00 | 1.65 | 0.00 | 100 | 1008.9 |
| 20260903101441 | 12 | 223 | 0.0 | 4.8 | 0.00 | 1.65 | 0.00 | 100 | 1008.9 |
| 20260903100941 | 12 | 222 | 1.6 | 6.4 | 0.00 | 1.65 | 0.00 | 100 | 1009.0 |
| 20260903100442 | 12 | 214 | 1.6 | 6.4 | 0.00 | 1.65 | 0.00 | 100 | 1009.0 |
| 20260903095941 | 12 | 219 | 0.0 | 4.8 | 0.00 | 1.65 | 0.00 | 99 | 1009.0 |
| 20260903094441 | 12 | 207 | 3.2 | 11.3 | 0.00 | 1.65 | 0.00 | 99 | 1009.1 |
| 20260903092941 | 12 | 202 | 1.6 | 11.3 | 0.00 | 1.65 | 0.00 | 99 | 1009.0 |
| 20260903092441 | 12 | 173 | 4.8 | 14.5 | 0.00 | 1.65 | 0.00 | 99 | 1009.0 |
| 20260903091441 | 12 | 209 | 6.4 | 11.3 | 0.00 | 1.65 | 0.00 | 98 | 1009.0 |
| 20260903090941 | 12 | 192 | 4.8 | 11.3 | 0.00 | 1.65 | 0.00 | 98 | 1009.1 |
| 20260903090440 | 12 | 222 | 8.0 | 11.3 | 0.00 | 1.65 | 0.00 | 98 | 1009.1 |
| 20260903085941 | 12 | 198 | 4.8 | 12.9 | 0.00 | 1.65 | 0.00 | 100 | 1009.1 |
| 20260903085441 | 12 | 188 | 3.2 | 14.5 | 0.00 | 1.65 | 0.00 | 98 | 1009.1 |
| 20260903084940 | 12 | 211 | 3.2 | 14.5 | 0.00 | 1.65 | 0.00 | 98 | 1009.1 |
| 20260903084441 | 12 | 190 | 3.2 | 11.3 | 0.00 | 1.65 | 0.00 | 98 | 1009.1 |
| 20260903083940 | 12 | 184 | 6.4 | 11.3 | 0.00 | 1.65 | 0.00 | 98 | 1009.3 |
| 20260903082940 | 12 | 197 | 4.8 | 12.9 | 0.00 | 1.65 | 0.00 | 98 | 1009.3 |
| 20260903082441 | 12 | 162 | 3.2 | 12.9 | 0.00 | 1.65 | 0.00 | 98 | 1009.3 |
| 20260903081941 | 12 | 178 | 1.6 | 11.3 | 0.00 | 1.65 | 0.00 | 98 | 1009.3 |
| 20260903081440 | 12 | 172 | 3.2 | 11.3 | 0.00 | 1.65 | 0.00 | 98 | 1009.3 |
| 20260903080940 | 12 | 199 | 6.4 | 11.3 | 0.00 | 1.65 | 0.00 | 98 | 1009.3 |
| 20260903080440 | 12 | 171 | 4.8 | 11.3 | 0.00 | 1.65 | 0.00 | 98 | 1009.3 |
| 20260903080010 | 12 | 136 | 8.0 | 11.3 | 0.00 | 1.65 | 0.00 | 98 | 1009.3 |
| 20260903075440 | 12 | 169 | 4.8 | 11.3 | 0.00 | 1.65 | 0.00 | 98 | 1009.3 |
| 20260903074940 | 12 | 202 | 4.8 | 12.9 | 0.00 | 1.65 | 0.00 | 98 | 1009.3 |
| 20260903073940 | 12 | 230 | 4.8 | 12.9 | 0.00 | 1.65 | 0.00 | 99 | 1009.3 |
| 20260903073440 | 12 | 221 | 11.3 | 12.9 | 0.00 | 1.65 | 0.00 | 100 | 1009.3 |
| 20260903072440 | 12 | 222 | 11.3 | 14.5 | 0.00 | 1.65 | 0.00 | 100 | 1009.3 |
| 20260903072010 | 13 | 189 | 6.4 | 14.5 | 0.00 | 1.65 | 0.00 | 100 | 1009.4 |
| 20260903071440 | 13 | 225 | 6.4 | 11.3 | 0.00 | 1.65 | 0.00 | 100 | 1009.4 |
| 20260903071010 | 13 | 186 | 8.0 | 12.9 | 0.03 | 1.65 | 0.00 | 100 | 1009.1 |
| 20260903070439 | 13 | 209 | 6.4 | 12.9 | 0.03 | 1.65 | 0.00 | 100 | 1009.1 |
| 20260903070010 | 13 | 205 | 11.3 | 11.3 | 0.03 | 1.65 | 0.00 | 100 | 1009.1 |
| 20260903065509 | 13 | 202 | 9.7 | 11.3 | 0.03 | 1.65 | 1.65 | 100 | 1009.1 |
| 20260903063940 | 13 | 194 | 8.0 | 9.7 | 0.03 | 1.65 | 1.65 | 100 | 1009.3 |
| 20260903063439 | 13 | 220 | 6.4 | 9.7 | 0.03 | 1.65 | 1.65 | 100 | 1009.3 |
| 20260903063009 | 13 | 220 | 4.8 | 9.7 | 0.03 | 1.65 | 1.65 | 100 | 1009.3 |
| 20260903062439 | 13 | 224 | 4.8 | 9.7 | 0.03 | 1.65 | 1.65 | 100 | 1009.3 |
| 20260903062009 | 13 | 216 | 4.8 | 9.7 | 0.03 | 1.65 | 1.65 | 100 | 1009.3 |
| 20260903061509 | 13 | 229 | 3.2 | 9.7 | 0.03 | 1.65 | 1.65 | 100 | 1009.3 |
| 20260903060939 | 13 | 181 | 3.2 | 9.7 | 0.00 | 1.63 | 1.63 | 99 | 1009.3 |
| 20260903055009 | 13 | 202 | 0.0 | 4.8 | 0.08 | 1.63 | 1.63 | 96 | 1009.3 |
| 20260903054509 | 13 | 212 | 1.6 | 6.4 | 0.08 | 1.63 | 1.63 | 96 | 1009.3 |
| 20260903054009 | 13 | 212 | 3.2 | 6.4 | 0.10 | 1.63 | 1.63 | 96 | 1009.5 |
| 20260903053509 | 13 | 213 | 0.0 | 4.8 | 0.13 | 1.63 | 1.63 | 96 | 1009.5 |
| 20260903052508 | 13 | 212 | 0.0 | 3.2 | 0.15 | 1.63 | 1.63 | 95 | 1009.4 |
| 20260903051509 | 13 | 211 | 0.0 | 6.4 | 0.15 | 1.63 | 1.63 | 95 | 1009.4 |
| 20260903051009 | 13 | 211 | 4.8 | 8.0 | 0.15 | 1.63 | 1.63 | 94 | 1009.3 |
| 20260903050438 | 13 | 206 | 6.4 | 12.9 | 0.13 | 1.60 | 1.60 | 94 | 1009.3 |
| 20260903050009 | 13 | 213 | 6.4 | 12.9 | 0.13 | 1.60 | 1.60 | 94 | 1009.3 |
| 20260903045509 | 13 | 196 | 4.8 | 11.3 | 0.10 | 1.57 | 1.57 | 94 | 1009.3 |
| 20260903045008 | 13 | 206 | 6.4 | 9.7 | 0.08 | 1.55 | 1.55 | 93 | 1009.3 |
| 20260903044008 | 13 | 205 | 9.7 | 11.3 | 0.05 | 1.52 | 1.52 | 92 | 1009.1 |
| 20260903043508 | 13 | 204 | 6.4 | 11.3 | 0.03 | 1.50 | 1.50 | 92 | 1009.1 |
| 20260903042508 | 13 | 215 | 9.7 | 9.7 | 0.00 | 1.47 | 1.47 | 92 | 1008.9 |
| 20260903042008 | 13 | 190 | 4.8 | 9.7 | 0.00 | 1.47 | 1.47 | 92 | 1008.9 |
| 20260903041438 | 13 | 215 | 9.7 | 9.7 | 0.00 | 1.47 | 1.47 | 92 | 1008.9 |
| 20260903040508 | 13 | 185 | 3.2 | 11.3 | 0.00 | 1.47 | 1.47 | 92 | 1008.7 |
| 20260903035508 | 13 | 205 | 8.0 | 8.0 | 0.00 | 1.47 | 1.47 | 92 | 1008.7 |
| 20260903035008 | 13 | 215 | 0.0 | 6.4 | 0.00 | 1.47 | 1.47 | 92 | 1008.7 |
| 20260903034508 | 13 | 182 | 4.8 | 6.4 | 0.00 | 1.47 | 1.47 | 92 | 1008.7 |
| 20260903033938 | 13 | 209 | 0.0 | 4.8 | 0.00 | 1.47 | 1.47 | 92 | 1008.4 |
| 20260903033508 | 13 | 205 | 0.0 | 4.8 | 0.00 | 1.47 | 1.47 | 92 | 1008.4 |
| 20260903033009 | 13 | 194 | 0.0 | 4.8 | 0.00 | 1.47 | 1.47 | 92 | 1008.4 |
| 20260903032509 | 13 | 218 | 1.6 | 4.8 | 0.00 | 1.47 | 1.47 | 91 | 1008.3 |
| 20260903032008 | 13 | 213 | 3.2 | 4.8 | 0.00 | 1.47 | 1.47 | 91 | 1008.3 |
| 20260903031509 | 14 | 233 | 0.0 | 4.8 | 0.00 | 1.47 | 1.47 | 90 | 1008.3 |
| 20260903031008 | 14 | 225 | 0.0 | 3.2 | 0.00 | 1.47 | 1.47 | 90 | 1008.3 |
| 20260903030009 | 14 | 225 | 0.0 | 0.0 | 0.00 | 1.47 | 1.47 | 90 | 1008.3 |
| 20260903025008 | 14 | 225 | 0.0 | 0.0 | 0.00 | 1.47 | 1.47 | 88 | 1008.1 |
| 20260903024508 | 14 | 225 | 0.0 | 0.0 | 0.00 | 1.47 | 1.47 | 87 | 1008.1 |
| 20260903024008 | 15 | 225 | 0.0 | 0.0 | 0.00 | 1.47 | 1.47 | 86 | 1008.2 |
| 20260903023439 | 15 | 225 | 0.0 | 0.0 | 0.00 | 1.47 | 1.47 | 86 | 1008.2 |
| 20260903022508 | 15 | 225 | 0.0 | 3.2 | 0.00 | 1.47 | 1.47 | 85 | 1008.1 |
| 20260903022008 | 15 | 224 | 0.0 | 3.2 | 0.00 | 1.47 | 1.47 | 85 | 1008.1 |
| 20260903021508 | 15 | 223 | 0.0 | 3.2 | 0.00 | 1.47 | 1.47 | 85 | 1008.1 |
| 20260903021008 | 15 | 215 | 1.6 | 8.0 | 0.00 | 1.47 | 1.47 | 85 | 1007.8 |
| 20260903020508 | 15 | 360 | 0.0 | 8.0 | 0.00 | 1.47 | 1.47 | 85 | 1007.8 |
| 20260903020008 | 15 | 360 | 3.2 | 4.8 | 0.00 | 1.47 | 1.47 | 85 | 1007.8 |
| 20260903015008 | 15 | 360 | 0.0 | 4.8 | 0.00 | 1.47 | 1.47 | 85 | 1007.8 |
| 20260903014508 | 15 | 360 | 0.0 | 6.4 | 0.00 | 1.47 | 1.47 | 85 | 1007.8 |
| 20260903014008 | 15 | 360 | 0.0 | 6.4 | 0.00 | 1.47 | 1.47 | 86 | 1007.7 |
| 20260903013438 | 15 | 360 | 0.0 | 6.4 | 0.00 | 1.47 | 1.47 | 87 | 1007.7 |
| 20260903012937 | 16 | 360 | 0.0 | 3.2 | 0.00 | 1.47 | 1.47 | 88 | 1007.7 |
| 20260903012508 | 16 | 360 | 0.0 | 3.2 | 0.00 | 1.47 | 1.47 | 89 | 1007.5 |
| 20260903011507 | 16 | 360 | 0.0 | 8.0 | 0.00 | 1.47 | 1.47 | 90 | 1007.5 |
| 20260903011007 | 16 | 360 | 0.0 | 8.0 | 0.03 | 1.47 | 1.47 | 90 | 1007.4 |
| 20260903010007 | 16 | 360 | 0.0 | 8.0 | 0.05 | 1.47 | 1.47 | 92 | 1007.4 |
| 20260903005507 | 16 | 360 | 1.6 | 8.0 | 0.05 | 1.47 | 1.47 | 93 | 1007.4 |
| 20260903005008 | 16 | 360 | 3.2 | 8.0 | 0.05 | 1.47 | 1.47 | 93 | 1007.4 |
| 20260903004507 | 16 | 360 | 0.0 | 6.4 | 0.05 | 1.47 | 1.47 | 94 | 1007.4 |
| 20260903004007 | 15 | 360 | 0.0 | 6.4 | 0.05 | 1.47 | 1.47 | 93 | 1007.4 |
| 20260903003507 | 15 | 360 | 0.0 | 3.2 | 0.05 | 1.47 | 1.47 | 93 | 1007.4 |
| 20260903002007 | 15 | 210 | 3.2 | 4.8 | 0.05 | 1.47 | 1.47 | 91 | 1007.3 |
| 20260903001508 | 15 | 53 | 0.0 | 1.6 | 0.05 | 1.47 | 1.47 | 90 | 1007.3 |
| 20260903001006 | 15 | 38 | 0.0 | 3.2 | 0.03 | 1.45 | 1.45 | 89 | 1007.2 |
| 20260903000007 | 15 | 360 | 0.0 | 3.2 | 0.00 | 1.42 | 1.42 | 89 | 1007.2 |
| 20260902235506 | 15 | 360 | 3.2 | 4.8 | 0.00 | 1.42 | 1.42 | 89 | 1007.0 |
| 20260902235006 | 15 | 360 | 3.2 | 6.4 | 0.00 | 1.42 | 1.42 | 90 | 1007.0 |
| 20260902234506 | 16 | 360 | 0.0 | 6.4 | 0.00 | 1.42 | 1.42 | 91 | 1007.0 |
| 20260902234006 | 16 | 360 | 1.6 | 6.4 | 0.00 | 1.42 | 1.42 | 93 | 1006.8 |
| 20260902233506 | 16 | 360 | 0.0 | 3.2 | 0.00 | 1.42 | 1.42 | 95 | 1006.8 |
| 20260902232506 | 16 | 360 | 1.6 | 4.8 | 0.00 | 1.42 | 1.42 | 97 | 1006.6 |
| 20260902232006 | 16 | 360 | 0.0 | 4.8 | 0.00 | 1.42 | 1.42 | 98 | 1006.6 |
| 20260902231507 | 16 | 360 | 0.0 | 3.2 | 0.00 | 1.42 | 1.42 | 96 | 1006.6 |
| 20260902231006 | 15 | 360 | 0.0 | 3.2 | 0.03 | 1.42 | 1.42 | 97 | 1006.7 |
| 20260902230506 | 15 | 360 | 0.0 | 4.8 | 0.03 | 1.42 | 1.42 | 96 | 1006.7 |
| 20260902230006 | 15 | 360 | 1.6 | 4.8 | 0.05 | 1.42 | 1.42 | 96 | 1006.7 |
| 20260902225506 | 15 | 360 | 0.0 | 6.4 | 0.10 | 1.42 | 1.42 | 98 | 1006.4 |
| 20260902225006 | 15 | 360 | 3.2 | 6.4 | 0.13 | 1.42 | 1.42 | 99 | 1006.4 |
| 20260902224505 | 15 | 360 | 4.8 | 6.4 | 0.13 | 1.42 | 1.42 | 100 | 1006.4 |
| 20260902224005 | 15 | 360 | 1.6 | 6.4 | 0.15 | 1.42 | 1.42 | 100 | 1006.4 |
| 20260902223505 | 15 | 360 | 3.2 | 6.4 | 0.18 | 1.42 | 1.42 | 99 | 1006.4 |
| 20260902221006 | 15 | 227 | 1.6 | 6.4 | 0.20 | 1.40 | 1.40 | 100 | 1006.3 |
| 20260902220505 | 15 | 219 | 6.4 | 8.0 | 0.20 | 1.40 | 1.40 | 100 | 1006.3 |
| 20260902220005 | 15 | 205 | 0.0 | 11.3 | 0.18 | 1.37 | 1.37 | 100 | 1006.3 |
| 20260902215505 | 15 | 172 | 1.6 | 14.5 | 0.15 | 1.32 | 1.32 | 100 | 1006.2 |
| 20260902215005 | 15 | 238 | 11.3 | 14.5 | 0.13 | 1.30 | 1.30 | 100 | 1006.2 |
| 20260902214505 | 15 | 203 | 9.7 | 16.1 | 0.15 | 1.30 | 1.30 | 100 | 1006.2 |
| 20260902213505 | 15 | 196 | 3.2 | 11.3 | 0.13 | 1.24 | 1.24 | 100 | 1006.2 |
| 20260902213006 | 15 | 205 | 9.7 | 11.3 | 0.15 | 1.24 | 1.24 | 100 | 1006.2 |
| 20260902212505 | 15 | 197 | 6.4 | 11.3 | 0.18 | 1.24 | 1.24 | 100 | 1005.9 |
| 20260902211505 | 15 | 197 | 6.4 | 14.5 | 0.20 | 1.24 | 1.24 | 100 | 1005.9 |
| 20260902211005 | 15 | 214 | 3.2 | 14.5 | 0.18 | 1.19 | 1.19 | 100 | 1006.0 |
| 20260902210505 | 15 | 174 | 3.2 | 12.9 | 0.18 | 1.19 | 1.19 | 100 | 1006.0 |
| 20260902210005 | 15 | 199 | 8.0 | 12.9 | 0.20 | 1.19 | 1.19 | 100 | 1006.0 |
| 20260902205005 | 15 | 198 | 8.0 | 11.3 | 0.20 | 1.17 | 1.17 | 100 | 1005.8 |
| 20260902204505 | 15 | 217 | 6.4 | 11.3 | 0.18 | 1.14 | 1.14 | 100 | 1005.8 |
| 20260902203005 | 14 | 221 | 6.4 | 16.1 | 0.18 | 1.09 | 1.09 | 100 | 1005.8 |
| 20260902202005 | 15 | 225 | 3.2 | 14.5 | 0.15 | 1.04 | 1.04 | 100 | 1005.7 |
| 20260902201504 | 14 | 192 | 3.2 | 14.5 | 0.18 | 1.04 | 1.04 | 100 | 1005.7 |
| 20260902201005 | 14 | 185 | 4.8 | 14.5 | 0.20 | 1.02 | 1.02 | 100 | 1005.6 |
| 20260902200504 | 14 | 200 | 8.0 | 14.5 | 0.25 | 1.02 | 1.02 | 100 | 1005.6 |
| 20260902200005 | 14 | 217 | 8.0 | 14.5 | 0.25 | 0.99 | 0.99 | 100 | 1005.6 |
| 20260902195005 | 14 | 211 | 9.7 | 17.7 | 0.25 | 0.97 | 0.97 | 100 | 1005.6 |
| 20260902194504 | 14 | 148 | 6.4 | 17.7 | 0.28 | 0.97 | 0.97 | 100 | 1005.6 |
| 20260902194004 | 14 | 194 | 8.0 | 17.7 | 0.25 | 0.94 | 0.94 | 100 | 1005.5 |
| 20260902193504 | 14 | 188 | 4.8 | 19.3 | 0.30 | 0.94 | 0.94 | 99 | 1005.5 |
| 20260902193005 | 14 | 190 | 11.3 | 19.3 | 0.30 | 0.91 | 0.91 | 98 | 1005.5 |
| 20260902192004 | 14 | 179 | 9.7 | 17.7 | 0.30 | 0.89 | 0.89 | 97 | 1005.5 |
| 20260902191504 | 14 | 198 | 9.7 | 19.3 | 0.30 | 0.86 | 0.86 | 96 | 1005.5 |
| 20260902191004 | 14 | 204 | 6.4 | 19.3 | 0.28 | 0.81 | 0.81 | 95 | 1005.7 |
| 20260902190504 | 14 | 157 | 6.4 | 19.3 | 0.25 | 0.76 | 0.76 | 95 | 1005.7 |
| 20260902190004 | 14 | 214 | 9.7 | 19.3 | 0.25 | 0.74 | 0.74 | 94 | 1005.7 |
| 20260902185505 | 14 | 218 | 11.3 | 11.3 | 0.28 | 0.71 | 0.71 | 95 | 1005.7 |
| 20260902185004 | 13 | 188 | 4.8 | 12.9 | 0.36 | 0.71 | 0.71 | 94 | 1005.7 |
| 20260902184504 | 13 | 197 | 4.8 | 12.9 | 0.36 | 0.69 | 0.69 | 94 | 1005.7 |
| 20260902184004 | 13 | 192 | 3.2 | 14.5 | 0.41 | 0.69 | 0.69 | 93 | 1005.6 |
| 20260902183504 | 13 | 213 | 8.0 | 17.7 | 0.38 | 0.64 | 0.64 | 92 | 1005.6 |
| 20260902183004 | 13 | 219 | 12.9 | 17.7 | 0.38 | 0.61 | 0.61 | 92 | 1005.6 |
| 20260902182004 | 13 | 153 | 8.0 | 17.7 | 0.38 | 0.58 | 0.58 | 92 | 1005.8 |
| 20260902181504 | 13 | 202 | 6.4 | 14.5 | 0.36 | 0.56 | 0.56 | 92 | 1005.8 |
| 20260902181004 | 14 | 190 | 4.8 | 11.3 | 0.33 | 0.53 | 0.53 | 92 | 1005.9 |
| 20260902180504 | 14 | 192 | 4.8 | 11.3 | 0.33 | 0.51 | 0.51 | 91 | 1005.9 |
| 20260902180006 | 14 | 209 | 6.4 | 11.3 | 0.30 | 0.48 | 0.48 | 91 | 1005.9 |
| 20260902175004 | 14 | 200 | 3.2 | 8.0 | 0.23 | 0.36 | 0.36 | 90 | 1005.7 |
| 20260902174504 | 14 | 196 | 0.0 | 8.0 | 0.20 | 0.33 | 0.33 | 89 | 1005.7 |
| 20260902174004 | 14 | 210 | 0.0 | 8.0 | 0.18 | 0.28 | 0.28 | 89 | 1006.1 |
| 20260902172503 | 14 | 186 | 3.2 | 11.3 | 0.15 | 0.20 | 0.20 | 89 | 1006.1 |
| 20260902172004 | 14 | 139 | 4.8 | 12.9 | 0.15 | 0.20 | 0.20 | 89 | 1006.1 |
| 20260902171503 | 14 | 186 | 4.8 | 12.9 | 0.18 | 0.20 | 0.20 | 88 | 1006.1 |
| 20260902171003 | 14 | 234 | 9.7 | 14.5 | 0.18 | 0.20 | 0.20 | 88 | 1006.2 |
| 20260902170504 | 14 | 230 | 1.6 | 14.5 | 0.18 | 0.18 | 0.18 | 88 | 1006.2 |
| 20260902170004 | 14 | 213 | 8.0 | 14.5 | 0.18 | 0.18 | 0.18 | 88 | 1006.2 |
| 20260902165504 | 14 | 197 | 1.6 | 11.3 | 0.15 | 0.15 | 0.15 | 87 | 1006.3 |
| 20260902164003 | 14 | 194 | 8.0 | 12.9 | 0.10 | 0.10 | 0.10 | 86 | 1006.3 |
| 20260902163504 | 15 | 207 | 4.8 | 9.7 | 0.10 | 0.10 | 0.10 | 86 | 1006.3 |
| 20260902162503 | 15 | 218 | 0.0 | 11.3 | 0.05 | 0.05 | 0.05 | 85 | 1006.2 |
| 20260902162004 | 15 | 246 | 3.2 | 11.3 | 0.05 | 0.05 | 0.05 | 84 | 1006.2 |
| 20260902161003 | 15 | 214 | 9.7 | 12.9 | 0.03 | 0.03 | 0.03 | 83 | 1006.1 |
| 20260902160503 | 15 | 211 | 4.8 | 12.9 | 0.00 | 0.00 | 0.00 | 83 | 1006.1 |
| 20260902155503 | 15 | 189 | 3.2 | 8.0 | 0.00 | 0.00 | 0.00 | 83 | 1006.1 |
| 20260902155004 | 15 | 202 | 6.4 | 8.0 | 0.00 | 0.00 | 0.00 | 83 | 1006.1 |
| 20260902154503 | 15 | 185 | 1.6 | 6.4 | 0.00 | 0.00 | 0.00 | 83 | 1006.1 |
| 20260902153503 | 15 | 176 | 4.8 | 6.4 | 0.00 | 0.00 | 0.00 | 83 | 1006.2 |
| 20260902153003 | 15 | 178 | 0.0 | 6.4 | 0.00 | 0.00 | 0.00 | 83 | 1006.2 |
| 20260902152503 | 15 | 154 | 0.0 | 4.8 | 0.00 | 0.00 | 0.00 | 83 | 1006.3 |
| 20260902152003 | 15 | 148 | 1.6 | 6.4 | 0.00 | 0.00 | 0.00 | 82 | 1006.3 |
| 20260902151503 | 15 | 153 | 1.6 | 6.4 | 0.00 | 0.00 | 0.00 | 82 | 1006.3 |
| 20260902151003 | 15 | 154 | 3.2 | 4.8 | 0.00 | 0.00 | 0.00 | 82 | 1006.4 |
| 20260902150503 | 15 | 186 | 1.6 | 8.0 | 0.00 | 0.00 | 0.00 | 83 | 1006.4 |
| 20260902150003 | 15 | 188 | 1.6 | 8.0 | 0.00 | 0.00 | 0.00 | 83 | 1006.4 |
| 20260902145503 | 15 | 176 | 0.0 | 3.2 | 0.00 | 0.00 | 0.00 | 83 | 1006.6 |
| 20260902145003 | 15 | 168 | 0.0 | 6.4 | 0.00 | 0.00 | 0.00 | 83 | 1006.6 |
| 20260902144503 | 15 | 207 | 0.0 | 6.4 | 0.00 | 0.00 | 0.00 | 83 | 1006.6 |
| 20260902143503 | 15 | 156 | 3.2 | 8.0 | 0.00 | 0.00 | 0.00 | 83 | 1006.7 |
| 20260902143003 | 15 | 161 | 3.2 | 6.4 | 0.00 | 0.00 | 0.00 | 83 | 1006.7 |
| 20260902142003 | 15 | 174 | 4.8 | 9.7 | 0.00 | 0.00 | 0.00 | 82 | 1006.9 |
| 20260902141502 | 15 | 181 | 4.8 | 9.7 | 0.00 | 0.00 | 0.00 | 81 | 1006.9 |
| 20260902141002 | 15 | 196 | 4.8 | 9.7 | 0.00 | 0.00 | 0.00 | 81 | 1007.0 |
| 20260902140502 | 15 | 210 | 1.6 | 9.7 | 0.00 | 0.00 | 0.00 | 80 | 1007.0 |
| 20260902135502 | 15 | 172 | 1.6 | 3.2 | 0.00 | 0.00 | 0.00 | 79 | 1007.0 |
| 20260902135003 | 15 | 174 | 0.0 | 8.0 | 0.00 | 0.00 | 0.00 | 79 | 1007.0 |
| 20260902134503 | 15 | 179 | 0.0 | 8.0 | 0.00 | 0.00 | 0.00 | 79 | 1007.0 |
| 20260902134002 | 15 | 182 | 0.0 | 6.4 | 0.00 | 0.00 | 0.00 | 79 | 1007.3 |
| 20260902133502 | 15 | 180 | 0.0 | 6.4 | 0.00 | 0.00 | 0.00 | 79 | 1007.3 |
| 20260902132502 | 15 | 202 | 3.2 | 9.7 | 0.00 | 0.00 | 0.00 | 79 | 1007.4 |
| 20260902132002 | 15 | 165 | 3.2 | 11.3 | 0.00 | 0.00 | 0.00 | 79 | 1007.4 |
| 20260902131502 | 15 | 168 | 3.2 | 11.3 | 0.00 | 0.00 | 0.00 | 79 | 1007.4 |
| 20260902131002 | 15 | 184 | 6.4 | 9.7 | 0.00 | 0.00 | 0.00 | 79 | 1007.6 |
| 20260902130002 | 15 | 181 | 4.8 | 11.3 | 0.00 | 0.00 | 0.00 | 79 | 1007.6 |
| 20260902125502 | 15 | 197 | 3.2 | 11.3 | 0.00 | 0.00 | 0.00 | 79 | 1007.9 |